Terug naar catalogus

KOREASAT 6A

ActiefCommunicatieGEO
NORAD 61910·PAYLOAD·🇰🇷 South Korea

Gelanceerd Nov 11, 2024 vanaf Cape Canaveral Space Force Station

Loading…

TLE

VersSource: Space-Track

Epoch: Sep 14, 2026, 14:21 UTC

1 61910U 24206A   26257.59815444 -.00000370  00000-0  00000-0 0  9994
2 61910   0.0100 155.5335 0000890 354.7973 174.6094  1.00272787  6733

Volg KOREASAT 6A in realtime met AllMySat

Download on the App Store